Hourly Data Report for April 23, 2017

All times are specified in Local Standard Time (LST). Add 1 hour to adjust for Daylight Saving Time where and when it is observed.

TORONTO CITY
ONTARIO

43°40'00.000" N
79°24'00.000" W
112.50 m
6158355
71508
XTO

Download Data

Hourly Data (April 2017)
Hourly Data Report for April 23, 2017
TIME Temp Definition
°C
Dew Point Definition
°C
Rel Hum Definition
%
Wind Dir Definition
10's deg

Wind Spd Definition
km/h
Visibility Definition
km
Stn Press Definition
kPa
Hmdx Definition


Wind Chill Definition


Weather Definition


00:00 8.3 -3.8 42 LegendMM LegendMM   100.59     LegendNANA
01:00 6.5 -2.5 53 LegendMM LegendMM   100.57     LegendNANA
02:00 6.0 -2.7 53 LegendMM LegendMM   100.53     LegendNANA
03:00 5.3 -2.4 58 LegendMM LegendMM   100.50     LegendNANA
04:00 5.2 -2.3 58 LegendMM LegendMM   100.50     LegendNANA
05:00 5.0 -2.0 61 LegendMM LegendMM   100.51     LegendNANA
06:00 5.4 -1.8 60 LegendMM LegendMM   100.57     LegendNANA
07:00 7.8 -0.4 56 LegendMM LegendMM   100.60     LegendNANA
08:00 10.3 0.2 50 LegendMM LegendMM   100.61     LegendNANA
09:00 11.0 -1.0 43 LegendMM LegendMM   100.60     LegendNANA
10:00 12.4 3.5 55 LegendMM LegendMM   100.59     LegendNANA
11:00 14.0 3.5 49 LegendMM LegendMM   100.57     LegendNANA
12:00 13.8 2.7 47 LegendMM LegendMM   100.50     LegendNANA
13:00 16.0 1.3 37 LegendMM LegendMM   100.40     LegendNANA
14:00 17.6 2.2 36 LegendMM LegendMM   100.32     LegendNANA
15:00 17.7 2.4 36 LegendMM LegendMM   100.26     LegendNANA
16:00 17.7 -0.6 29 LegendMM LegendMM   100.24     LegendNANA
17:00 16.4 3.5 42 LegendMM LegendMM   100.27     LegendNANA
18:00 15.7 3.0 43 LegendMM LegendMM   100.30     LegendNANA
19:00 13.7 2.7 47 LegendMM LegendMM   100.34     LegendNANA
20:00 12.8 2.6 50 LegendMM LegendMM   100.41     LegendNANA
21:00 13.7 2.9 48 LegendMM LegendMM   100.46     LegendNANA
22:00 12.8 2.2 48 LegendMM LegendMM   100.47     LegendNANA
23:00 11.6 2.4 53 LegendMM LegendMM   100.50     LegendNANA

Notes on Data Quality.

Legend

  • E = Estimated
  • M = Missing
  • NA = Not Available
Date modified: